Regional Weather Roundup
Issued by NWS Sterling, VA

Home | Current Version | Previous Version | Text Only | Print | Product List | Glossary On
Versions: 1 2 3 4 5 6 7 8 9 10 11 12 13 14 15 16 17 18 19 20 21 22 23 24 25 26 27 28 29 30 31 32 33 34 35 36 37 38 39 40 41 42 43 44 45 46 47 48 49
000
ASUS41 KLWX 050210
RWRLWX

REGIONAL WEATHER ROUNDUP
NATIONAL WEATHER SERVICE BALTIMORE MD/WASHINGTON DC
900 PM EST WED MAR 04 2015

Note: "FAIR" indicates few or no clouds below 12,000 feet
with no significant weather and/or obstructions to visibility.
 TC=TEMPERATURE CELSIUS

 * =Non NWS site. Station does not report precipitation (e.g. rain,
    snow, etc.), thunder, or fog.

DCZ001-MDZ009-015-VAZ040>042-051-053>054-050300-
WASHINGTON METRO

CITY           SKY/WX    TMP DP  RH WIND       PRES   REMARKS
WASHINGTON NAT RAIN      46  43  87 N12       29.93R FOG
DULLES         RAIN      41  41 100 NW5       29.93R VSB 3/4
ANDREWS AFB    RAIN      45  45 100 N10       29.91S FOG
FT BELVOIR     RAIN      45  45 100 NW1       29.91F VSB 1
QUANTICO       LGT RAIN  43  40  89 CALM      29.91F VSB 3/4
COLLEGE PARK*    N/A     43  43 100 CALM      29.93R
LEESBURG*      RAIN      41  41 100 NE3       29.93F
MANASSAS*      CLOUDY    45  45 100 CALM      29.91S FOG
GAITHERSBURG*  CLOUDY    43  39  87 CALM      29.96R

$$

MDZ006>007-011-014-050300-
BALTIMORE METRO

CITY           SKY/WX    TMP DP  RH WIND       PRES   REMARKS
BWI AIRPORT    RAIN      41  40  96 CALM      29.93R VSB 1
MD SCIENCE CTR   N/A     43  41  93 MISG      29.95R
MARTIN STATE   RAIN      41  41 100 CALM      29.97R
ANNAPOLIS      LGT RAIN  38  36  92 NW6       29.93R VSB 3/4
FORT MEADE*    CLOUDY    39  37  93 CALM      29.96R VSB 1/2

$$

MDZ012-015-019>023-050300-
MARYLAND EASTERN SHORE

CITY           SKY/WX    TMP DP  RH WIND       PRES   REMARKS
OCEAN CITY     CLOUDY    43  43 100 CALM      29.89S FOG
SALISBURY      FOG       50  47  89 CALM      29.89S VSB 1/2
BAY BRIDGE AP* LGT RAIN  36  36 100 N7        29.94R
CAMBRIDGE*       N/A     45  43  93 N5        29.90S
EASTON*        LGT RAIN  45  45 100 CALM      29.96R VSB 1

$$

MDZ017>025-050300-
SOUTHERN MARYLAND

CITY           SKY/WX    TMP DP  RH WIND       PRES   REMARKS
PATUXENT RIVER FOG       47  45  93 CALM      29.89S VSB 1/2
ST INIGOES     FOG       45  42  89 W3        29.89S VSB 1/2
LEONARDTOWN*   CLOUDY    46  45  93 CALM      29.91S

$$

MDZ003>005-050300-
NORTH CENTRAL MARYLAND

CITY           SKY/WX    TMP DP  RH WIND       PRES   REMARKS
FREDERICK*     RAIN      39  36  87 CALM      29.95F VSB 1/4
HAGERSTOWN APT LGT RAIN  41  36  82 NW9       29.92S
WESTMINSTER*   RAIN      39  37  93 CALM      29.91F

$$

MDZ501>502-050300-
WESTERN MARYLAND

CITY           SKY/WX    TMP DP  RH WIND       PRES   REMARKS
OAKLAND*       FOG       30 N/A N/A NW6       29.92R VSB 1
CUMBERLAND*    CLOUDY    41  36  81 NE6       30.01R

$$

VAZ025>031-050300-
SHENANDOAH VALLEY

CITY           SKY/WX    TMP DP  RH WIND       PRES   REMARKS
WINCHESTER*    RAIN      43  39  87 CALM      29.93S
FRONT ROYAL*   CLOUDY    43  43 100 NE6       29.91F
LURAY*         RAIN      46  46 100 CALM      29.90F VSB 1/4
NEW MARKET*    CLOUDY    39  39 100 CALM      29.91R VSB 1/2
STAUNTON*      LGT RAIN  44  43  96 CALM      29.92R VSB 3/4
WAYNESBORO*    CLOUDY    45  45 100 CALM      29.90S VSB 1/2

$$

WVZ021-048>050-054>055-050300-
EASTERN WEST VIRGINIA PANHANDLE

CITY           SKY/WX    TMP DP  RH WIND       PRES   REMARKS
MARTINSBURG    RAIN      42  39  89 NE6       29.94R
PETERSBURG*    NOT AVBL

$$

VAZ036>039-050-050300-
CENTRAL FOOTHILLS

CITY           SKY/WX    TMP DP  RH WIND       PRES   REMARKS
CHARLOTTESVILL LGT RAIN  46  45  96 CALM      29.90S VSB 1
CULPEPER*      LGT RAIN  46  45  93 CALM      29.91F
ORANGE*        DRZL/FOG  43  43 100 CALM      29.92S VSB 1/2
GORDONSVILLE*  CLOUDY    41  40  99 CALM      29.90S FOG
WARRENTON*     LGT RAIN  45  45 100 CALM      29.91F VSB 3/4

$$

VAZ055>057-050300-
NORTH AND CENTRAL PIEDMONT

CITY           SKY/WX    TMP DP  RH WIND       PRES   REMARKS
FREDERICKSBRG* LGT RAIN  48  48 100 CALM      29.89F VSB 1/4
STAFFORD*      DRZL/FOG  48  32  53 NW3       29.94F VSB 1/2

$$

NCZ024-NYZ072-PAZ021-071-VAZ022-071-050300-
OTHER REGIONAL OBSERVATIONS

CITY           SKY/WX    TMP DP  RH WIND       PRES   REMARKS
NEW YORK CITY  RAIN      42  39  89 W8        29.92R FOG
PHILADELPHIA   LGT RAIN  41  40  96 W5        29.95R VSB 3/4
PITTSBURGH     SNOW      31  30  96 W6        29.99F VSB 1/2
ROANOKE        LGT RAIN  47  46  97 NE5       29.93R FOG
RICHMOND       LGT RAIN  54  50  86 N3        29.89S
RALEIGH        MOCLDY    64  53  67 SW7       29.89R

$$

ANZ530>537-050300-
MARINE OBSERVATIONS

STATION/POSITION TIME  TEMP    WIND        PRES
                       AIR SEA DIR/SP/G
                 (UTC) (F)     (DEG/KT/KT) (MB)
THOMAS PT LIGHT  0200   41 32  360/  9/  9 1014.3R
BALT KEY BRIDGE  0100   39     310/  2/  3 1013.0R
COVE POINT       0100   41     350/  7/  8 1012.0R
LEWISETTA        0100   44 35     CALM     1011.8S
SOLOMONS ISLAND  0100      33                N/A

$$



USA.gov is the U.S. government's official web portal to all federal, state and local government web resources and services.